User: anonymous   Login
Location: Caltech
(34.1382°N, 118.1253°W)
Time: 16:00:29
(UTC-08:00)
Language:

Hamsat - Orbit

View from above orbital plane
View from above orbital plane
View from above satellite
View from above satellite

Ground track
Ground track

The orbit data is extracted from the following two-line orbital elements,

1 28650U 05017B   17055.49825517  .00000525  00000-0  61870-4 0  9991
2 28650  97.6384  33.7470 0024496 140.8839 219.4155 14.88569159639407
Epoch (UTC): 24 February 2017 11:57:29
Eccentricity: 0.0024496
inclination: 97.6384°
perigee height: 585 km
apogee height: 619 km
right ascension of ascending node: 33.7470°
argument of perigee: 140.8839°
revolutions per day: 14.88569159
mean anomaly at epoch: 219.4155°
orbit number at epoch: 63940

The dashed part of the orbit path shows where the satellite is in the earth's shadow,  

DLR